User: anonymous   Login
Location: Unspecified
(0.0000°N, 0.0000°E)
Time: 07:51:07
(UTC+00:00)
Language:

GOES 7 - Orbit

View from above orbital plane
View from above orbital plane
View from above satellite
View from above satellite

Ground track
Ground track

The orbit data is extracted from the following two-line orbital elements,

1 17561U 87022A   18112.56917829 -.00000379 +00000-0 +00000-0 0  9999
2 17561 015.1198 002.6056 0007044 327.1592 210.3510 00.99902174097212
Epoch (UTC): 22 April 2018 13:39:37
Eccentricity: 0.0007044
inclination: 15.1198°
perigee height: 35860 km
apogee height: 35920 km
right ascension of ascending node: 2.6056°
argument of perigee: 327.1592°
revolutions per day: 0.99902174
mean anomaly at epoch: 210.3510°
orbit number at epoch: 9721

The dashed part of the orbit path shows where the satellite is in the earth's shadow,  

DLR